Starlink 32538

operational
NORAD ID: 62170 Int'l Des: 2024-225 Owner: SPXS Country: US Constellation: starlink
LEOCIRCULAR

Starlink 32538について

説明を読み込み中...

リアルタイム位置

3D地球を読み込み中...

次回通過

高度履歴

Altitude vs Time

uPlot chart will show altitude changes over time

軌道要素

1 62170U 24225H 25303.25321133 .00005413 00000-0 46097-3 0 9996
2 62170 69.9991 133.4633 0003030 269.4378 90.6434 14.98338444 50334
Epoch: Oct 30, 2025 • Age: 21 hours

現在のステータス

高度 580.0 km
速度 7.57 km/s
衛星直下点 45.40°N, 66.25°E
打ち上げ日 Nov 30, 2024
運用期間 0.9 years
タイプ internet

技術仕様

分類 Payload
質量 730.00 kg
乾燥質量 700.00 kg
総質量 730.00 kg
長さ 0.30 m
直径 4.10 m
スパン 29.00 m
形状 Box + pan
製造者 SPXS
バスタイプ Starlink V2M
フェーズステータス In Orbit
所有者/国 SPXS/US

大規模コンステレーション

Loading constellations...